Weather History for Lancaster, CA

Change the Weather History Date:

Thursday, March 8, 2012

  Actual Average Record
Temperature  
Mean Temperature 46 °F 52 °F  
Max Temperature 70 °F 66 °F 83 °F (1972)
Min Temperature 21 °F 38 °F 21 °F (2012)
Degree Days  
Heating Degree Days 19    
Month to date heating degree days 140  
Since 1 July heating degree days 2593  
Cooling Degree Days 0    
Month to date cooling degree days 0  
Year to date cooling degree days 0  
Moisture  
Dew Point 0 °F    
Average Humidity 23    
Maximum Humidity 41    
Minimum Humidity 5    
Precipitation  
Precipitation 0.00 in 0.05 in 0.47 in (1986)
Month to date precipitation 0.00 0.39  
Year to date precipitation 0.41 3.67  
Since 1 July precipitation 1.76 6.14  
Snow  
Snow 0.00 in - 0.00 in ()
Month to date snowfall 0.0  
Since 1 July snowfall 0.0  
Snow Depth 0.00 in    
Sea Level Pressure  
Sea Level Pressure 30.34 in    
Wind  
Wind Speed 8 mph (NE)    
Max Wind Speed 24 mph    
Max Gust Speed 32 mph    
Visibility 10 miles    
Events      
T = Trace of Precipitation, MM = Missing Value Source: NWS Daily Summary

Daily Weather History Graph

Daily Weather History Graph

Search for Another Location

Airport:

Trip Planner

Search our weather history database for the weather conditions in past years. The results will help you decide how hot, cold, wet, or windy it might be!

Date:

Astronomy

Mar. 08, 2012 Rise Set
Actual Time 6:12 AM PST 5:55 PM PST
Civil Twilight 5:47 AM PST 6:20 PM PST
Nautical Twilight 5:17 AM PST 6:49 PM PST
Astronomical Twilight 4:48 AM PST 7:19 PM PST
Moon 6:43 PM PST (3/8) 6:01 AM PST (3/8)
Length of Visible Light 12h 33m
Length of Day
11h 43m
Full, 100% of the Moon is Illuminated
Mar 8
Full
Mar 14
Last Quarter
Mar 22
New
Mar 30
First Quarter
Apr 6
Full

Hourly Weather History & Observations

Time (PST) Temp. Windchill Dew Point Humidity Pressure Visibility Wind Dir Wind Speed Gust Speed Precip Events Conditions
12:56 AM 27.0 °F 21.6 °F 1.0 °F 33% 30.27 in 10.0 mi WNW 4.6 mph - N/A   Clear
1:56 AM 30.9 °F - 1.9 °F 29% 30.27 in 10.0 mi Calm Calm - N/A   Clear
2:56 AM 28.0 °F 24.2 °F 1.9 °F 33% 30.28 in 10.0 mi West 3.5 mph - N/A   Clear
3:56 AM 26.1 °F - 1.0 °F 34% 30.30 in 10.0 mi Calm Calm - N/A   Clear
4:56 AM 21.9 °F 15.7 °F 1.0 °F 40% 30.32 in 10.0 mi NW 4.6 mph - N/A   Clear
5:56 AM 26.1 °F - 1.9 °F 35% 30.36 in 10.0 mi Calm Calm - N/A   Clear
6:56 AM 26.1 °F 20.5 °F 3.0 °F 37% 30.39 in 10.0 mi WNW 4.6 mph - N/A   Clear
7:56 AM 39.9 °F 37.8 °F 1.9 °F 20% 30.41 in 10.0 mi NNW 3.5 mph - N/A   Clear
8:56 AM 50.0 °F - 1.9 °F 14% 30.41 in 10.0 mi ENE 9.2 mph - N/A   Clear
9:56 AM 55.9 °F - 3.9 °F 12% 30.40 in 10.0 mi ENE 10.4 mph - N/A   Clear
10:56 AM 61.0 °F - 3.0 °F 10% 30.40 in 10.0 mi ENE 18.4 mph - N/A   Clear
11:56 AM 64.0 °F - 1.9 °F 8% 30.37 in 10.0 mi NE 21.9 mph 32.2 mph N/A   Clear
12:56 PM 66.0 °F - 3.0 °F 8% 30.35 in 10.0 mi ENE 13.8 mph 27.6 mph N/A   Clear
1:56 PM 68.0 °F - -0.9 °F 6% 30.31 in 10.0 mi ENE 15.0 mph 20.7 mph N/A   Clear
2:56 PM 69.1 °F - -4.0 °F 5% 30.30 in 10.0 mi East 15.0 mph 21.9 mph N/A   Clear
3:56 PM 69.1 °F - -6.0 °F 5% 30.30 in 10.0 mi ENE 13.8 mph - N/A   Clear
4:56 PM 66.9 °F - -5.1 °F 6% 30.31 in 10.0 mi East 11.5 mph - N/A   Clear
5:56 PM 62.1 °F - -0.9 °F 8% 30.32 in 10.0 mi East 8.1 mph - N/A   Clear
6:56 PM 55.9 °F - 1.0 °F 11% 30.35 in 10.0 mi East 5.8 mph - N/A   Clear
7:56 PM 46.9 °F - -2.0 °F 13% 30.36 in 10.0 mi ENE 6.9 mph - N/A   Clear
8:56 PM 43.0 °F 39.5 °F 1.0 °F 17% 30.37 in 10.0 mi NNE 5.8 mph - N/A   Clear
9:56 PM 37.0 °F 32.4 °F -0.9 °F 20% 30.37 in 10.0 mi NNW 5.8 mph - N/A   Clear
10:56 PM 39.0 °F - -0.0 °F 19% 30.38 in 10.0 mi Calm Calm - N/A   Clear
11:56 PM 35.1 °F 28.6 °F 1.9 °F 25% 30.38 in 10.0 mi West 8.1 mph - N/A   Clear